Regional Weather Roundup
Issued by NWS New Orleans/Baton Rouge, LA

Home | Current Version | Previous Version | Text Only | Print | Product List | Glossary On
Versions: 1 2 3 4 5 6 7 8 9 10 11 12 13 14 15 16 17 18 19 20 21 22 23 24 25 26 27 28 29 30 31 32 33 34 35 36 37 38 39 40 41 42 43 44 45 46 47 48 49 50
593
ASUS44 KLIX 280310
RWRLIX
NEW ORLEANS REGIONAL WEATHER ROUNDUP
NATIONAL WEATHER SERVICE NEW ORLEANS LA
900 PM CST THU NOV 27 2014

NOTE: "FAIR" INDICATES FEW OR NO CLOUDS BELOW 12,000 FEET WITH NO
      SIGNIFICANT WEATHER AND/OR OBSTRUCTIONS TO VISIBILITY.
      SKY/WX - SKY CONDITION AND SIGNIFICANT WEATHER.
      TMP - AIR TEMPERATURE.     DP    - DEWPOINT TEMPERATURE.
      RH  - RELATIVE HUMIDITY.   PRES  - PRESSURE.
      HI  - HEAT INDEX.          WCI   - WIND CHILL INDEX.

*  THESE STATIONS ARE NOT NWS OR FAA STATIONS AND ARE NOT UNDER
   NWS QUALITY CONTROL.

LAZ038-040-048-061>063-065>067-069-280400-
SOUTHEAST LOUISIANA

CITY           SKY/WX    TMP DP  RH WIND       PRES   REMARKS
N.O. AUDUBON     N/A     50  36  57 MISG        N/A
N.O. INTL ARPT CLEAR     52  34  50 NE13      30.44S
N.O. LAKEFRONT CLEAR     54  36  50 NE17      30.45R
N.O. DOWNTOWN*   N/A     54  30  40 N5        30.45R
SLIDELL        CLEAR     39  35  86 N3        30.45R
BATON ROUGE    CLEAR     42  34  73 CALM      30.45S
BOOTHVILLE     CLEAR     54  39  57 NE9       30.43S
BELLE CHASSE   CLEAR     49  32  52 N5        30.44S
BOGALUSA*        N/A     38  34  85 CALM      30.48R
NEW ROADS*       N/A     42  34  71 CALM      30.46S
GONZALES*        N/A     44  35  71 N3        30.44S
HAMMOND*       CLEAR     41  34  75 NE3       30.47S
HOUMA*         CLEAR     45  34  65 CALM      30.44S
PORT FOURCHON* CLEAR     54  39  58 NE9       30.47R

$$

MSZ070-080>082-280400-
SOUTHERN MISSISSIPPI

CITY           SKY/WX    TMP DP  RH WIND       PRES   REMARKS
MCCOMB         CLEAR     43  30  60 N5        30.45R
GULFPORT       CLEAR     41  35  79 N3        30.45R
BILOXI         CLEAR     47  34  60 VRB2      30.45R
PASCAGOULA     CLEAR     43  32  65 N6        30.45R

$$

COASTAL OBSERVATIONS
LAKE AND NEARSHORE STATIONS

STATION/POSITION TIME  TEMP    WIND        PRES    WAVE
                       AIR SEA DIR/SP/G            HT/PER
                 (UTC) (F)     (DEG/KT/KT) (MB)    (FT/S)
PASCAGOULA       0300   47      20/  8/ 10 1030.3
WAVELAND YACHT   0300   50      10/  9/ 11 1030.2
GRAND ISLE       0300   55 59   40/ 11/ 15 1030.8
SOUTHWEST PASS   0300   56                 1030.4
NEW CANAL        0300   54 54   40/ 15/ 18 1031.1
SHELL BEACH      0300   54 52   30/ 15/ 17 1030.6

OFFSHORE STATIONS

STATION/POSITION TIME  TEMP    WIND        PRES    WAVE
                       AIR SEA DIR/SP/G            HT/PER
                 (UTC) (F)     (DEG/KT/KT) (MB)    (FT/S)
64 S DAUPHIN ISL 0216   58 71   20/ 19/ 25 1030.3    5/ 5

$$




USA.gov is the U.S. government's official web portal to all federal, state and local government web resources and services.